Fort Greely, AK

12:28 AM AKST on February 24, 2017 (GMT -0900)
Allen Army Air Field

Weather History for PABI - December, 2012

Change the Weather History Date:

Wednesday, December 12, 2012

  Actual Average Record
Temperature  
Mean Temperature 10 °F -  
Max Temperature 19 °F 4 °F 24 °F (2011)
Min Temperature 1 °F -3 °F -29 °F (2010)
Degree Days  
Heating Degree Days 55    
Moisture  
Dew Point 10 °F    
Average Humidity 80    
Maximum Humidity 93    
Minimum Humidity 63    
Precipitation  
Precipitation 0.01 in - - ()
Sea Level Pressure  
Sea Level Pressure 29.27 in    
Wind  
Wind Speed 14 mph (ESE)    
Max Wind Speed 23 mph    
Max Gust Speed 30 mph    
Visibility 9 miles    
Events Snow    
Averages and records for this station are not official NWS values.
T = Trace of Precipitation, MM = Missing Value Source: NWS Daily Summary

Daily Weather History Graph

Daily Weather History Graph

Search for Another Location

Airport or City:

Trip Planner

Search our weather history database for the weather conditions in past years. The results will help you decide how hot, cold, wet, or windy it might be!

Date:

Astronomy

Dec. 12, 2012 Rise Set
Actual Time 10:25 AM AKST 2:48 PM AKST
Civil Twilight 9:09 AM AKST 4:04 PM AKST
Nautical Twilight 8:01 AM AKST 5:12 PM AKST
Astronomical Twilight 7:01 AM AKST 6:11 PM AKST
Moon 9:28 AM AKST (12/12) 2:45 PM AKST (12/12)
Length of Visible Light 6h 55m
Length of Day
4h 22m
Waning Crescent, 0% of the Moon is Illuminated
Dec 12
Waning Crescent
Dec 12
New
Dec 19
First Quarter
Dec 28
Full
Jan 4
Last Quarter

Hourly Weather History & Observations

Time (AKST) Temp. Windchill Dew Point Humidity Pressure Visibility Wind Dir Wind Speed Gust Speed Precip Events Conditions
12:53 AM 10.0 °F -9.5 °F 3.9 °F 76% 29.57 in 10.0 mi ESE 21.9 mph 28.8 mph N/A   Overcast
1:53 AM 10.9 °F -8.8 °F 5.0 °F 77% 29.53 in 10.0 mi East 23.0 mph 29.9 mph N/A   Overcast
2:53 AM 10.9 °F -7.9 °F 5.0 °F 77% 29.48 in 10.0 mi ESE 20.7 mph - N/A   Mostly Cloudy
3:53 AM 10.9 °F -7.9 °F 5.0 °F 77% 29.43 in 10.0 mi ESE 20.7 mph - N/A   Overcast
4:53 AM 12.0 °F -6.9 °F 6.1 °F 77% 29.40 in 10.0 mi ESE 21.9 mph 28.8 mph N/A   Overcast
5:53 AM 12.9 °F -3.9 °F 7.0 °F 77% 29.37 in 10.0 mi ESE 17.3 mph - N/A   Overcast
6:53 AM 15.1 °F -2.0 °F 7.0 °F 70% 29.34 in 10.0 mi ESE 19.6 mph - N/A   Overcast
7:53 AM 15.1 °F -1.1 °F 8.1 °F 74% 29.31 in 10.0 mi ESE 17.3 mph - N/A   Overcast
8:53 AM 16.0 °F 2.9 °F 9.0 °F 74% 29.29 in 10.0 mi ESE 11.5 mph - 0.01 in   Overcast
9:53 AM 16.0 °F 4.4 °F 9.0 °F 74% 29.28 in 10.0 mi ESE 9.2 mph - N/A   Overcast
10:53 AM 17.1 °F 4.3 °F 10.0 °F 74% 29.26 in 10.0 mi ESE 11.5 mph - N/A   Overcast
11:53 AM 17.1 °F 4.3 °F 10.0 °F 74% 29.25 in 10.0 mi ESE 11.5 mph - N/A   Overcast
12:53 PM 18.0 °F 4.2 °F 10.9 °F 74% 29.23 in 10.0 mi ESE 13.8 mph - N/A   Overcast
1:53 PM 18.0 °F 8.7 °F 10.9 °F 74% 29.21 in 10.0 mi East 6.9 mph - N/A   Overcast
2:53 PM 19.0 °F 6.8 °F 10.9 °F 71% 29.22 in 10.0 mi SE 11.5 mph - N/A   Overcast
3:53 PM 19.0 °F 9.0 °F 12.0 °F 74% 29.24 in 4.0 mi SE 8.1 mph - 0.00 in Snow Light Snow
4:45 PM 17.6 °F 12.3 °F 14.0 °F 86% 29.14 in 2.5 mi ESE 3.5 mph - 0.00 in Snow Light Snow
4:53 PM 18.0 °F - 14.0 °F 84% 29.24 in 2.0 mi Calm Calm - 0.00 in Snow Light Snow
5:15 PM 17.6 °F 8.2 °F 15.8 °F 93% 29.13 in 4.0 mi ESE 6.9 mph - 0.00 in Snow Light Snow
5:53 PM 18.0 °F 7.7 °F 15.1 °F 88% 29.22 in 9.0 mi ESE 8.1 mph - 0.00 in Snow Light Snow
6:53 PM 17.1 °F 10.0 °F 15.1 °F 92% 29.21 in 9.0 mi East 4.6 mph - 0.00 in   Overcast
7:42 PM 17.6 °F 7.3 °F 14.0 °F 86% 29.10 in 10.0 mi East 8.1 mph - N/A   Mostly Cloudy
7:53 PM 16.0 °F 6.3 °F 14.0 °F 92% 29.20 in 10.0 mi East 6.9 mph - N/A   Scattered Clouds
8:53 PM 15.8 °F 8.6 °F 12.2 °F 86% 29.19 in 10.0 mi ENE 4.6 mph - N/A   Scattered Clouds
9:38 PM 12.2 °F - 10.4 °F 92% 29.08 in 10.0 mi Calm Calm - N/A   Overcast
9:46 PM 14.0 °F - 10.4 °F 86% 29.08 in 10.0 mi Calm Calm - N/A   Mostly Cloudy
9:53 PM 14.0 °F 8.2 °F 12.0 °F 92% 29.19 in 10.0 mi SE 3.5 mph - N/A   Mostly Cloudy
10:53 PM 12.9 °F - 10.0 °F 88% 29.20 in 10.0 mi Calm Calm - N/A   Mostly Cloudy
11:53 PM 12.9 °F 5.2 °F 10.0 °F 88% 29.20 in 10.0 mi ESE 4.6 mph - N/A   Overcast